SAS2112 ESSA-EETN

Flight info

Callsign SAS2112
Flight time N/A
Altitude 35000
Route TOVRI N851 RIKUM DCT DOBAN
Aircraft E195/M-SDE3GILORVW/S

Departure

Time 2026-05-07 15:07
Airport Stockholm-Arlanda Airport (ESSA)

Arrival

Time N/A
Airport Lennart Meri Tallinn Airport (EETN)
Time Latitude Longitude Altitude Speed Heading
2026-05-07 14:24 59.65144 17.92698 110 ft 0 kts 191°
2026-05-07 14:51 59.65149 17.92699 110 ft 2 kts 191°
2026-05-07 14:51 59.65168 17.92707 110 ft 3 kts 194°
2026-05-07 14:52 59.65187 17.92718 110 ft 3 kts 199°
2026-05-07 14:52 59.65206 17.92732 109 ft 3 kts 210°
2026-05-07 14:52 59.65221 17.92754 109 ft 3 kts 239°
2026-05-07 14:52 59.65226 17.92776 110 ft 1 kts 287°
2026-05-07 14:53 59.65226 17.92780 110 ft 3 kts 289°
2026-05-07 14:59 59.65230 17.92759 107 ft 3 kts 289°
2026-05-07 14:59 59.65241 17.92696 110 ft 6 kts 289°
2026-05-07 15:00 59.65258 17.92594 108 ft 9 kts 291°
2026-05-07 15:00 59.65264 17.92562 109 ft 0 kts 291°
2026-05-07 15:00 59.65266 17.92553 110 ft 2 kts 290°
2026-05-07 15:01 59.65276 17.92495 110 ft 7 kts 288°
2026-05-07 15:01 59.65298 17.92367 108 ft 13 kts 291°
2026-05-07 15:01 59.65359 17.92275 103 ft 13 kts
2026-05-07 15:01 59.65458 17.92310 103 ft 16 kts
2026-05-07 15:02 59.65572 17.92351 103 ft 18 kts 11°
2026-05-07 15:02 59.65699 17.92399 103 ft 19 kts 10°
2026-05-07 15:02 59.65836 17.92448 105 ft 20 kts 10°
2026-05-07 15:02 59.65976 17.92499 107 ft 21 kts 10°
2026-05-07 15:03 59.66119 17.92549 110 ft 21 kts 10°
2026-05-07 15:03 59.66261 17.92602 115 ft 20 kts 11°
2026-05-07 15:03 59.66396 17.92651 119 ft 16 kts 10°
2026-05-07 15:03 59.66480 17.92646 118 ft 12 kts 343°
2026-05-07 15:04 59.66562 17.92589 121 ft 13 kts 340°
2026-05-07 15:04 59.66621 17.92483 123 ft 12 kts 276°
2026-05-07 15:04 59.66613 17.92367 123 ft 3 kts 242°
2026-05-07 15:04 59.66587 17.92354 122 ft 5 kts 183°
2026-05-07 15:05 59.66564 17.92348 122 ft 0 kts 188°
2026-05-07 15:05 59.66553 17.92345 122 ft 0 kts 188°
2026-05-07 15:05 59.66550 17.92345 122 ft 0 kts 188°
2026-05-07 15:06 59.66369 17.92278 117 ft 65 kts 191°
2026-05-07 15:06 59.65675 17.92024 107 ft 137 kts 190°
2026-05-07 15:07 59.64580 17.91634 460 ft 174 kts 191°
2026-05-07 15:07 59.63333 17.91170 1299 ft 187 kts 190°
2026-05-07 15:07 59.62059 17.90681 2119 ft 186 kts 192°
2026-05-07 15:07 59.60760 17.90395 2756 ft 193 kts 181°
2026-05-07 15:08 59.59399 17.90340 3375 ft 198 kts 186°
2026-05-07 15:08 59.58000 17.90137 3965 ft 205 kts 187°
2026-05-07 15:08 59.56570 17.90527 4527 ft 216 kts 158°
2026-05-07 15:08 59.55393 17.92442 5111 ft 221 kts 134°
2026-05-07 15:09 59.54341 17.94798 5077 ft 239 kts 129°
2026-05-07 15:09 59.53561 17.97606 4973 ft 228 kts 105°
2026-05-07 15:09 59.53468 18.00683 4943 ft 225 kts 78°
2026-05-07 15:09 59.54049 18.03483 5116 ft 219 kts 51°
2026-05-07 15:10 59.55113 18.05640 5496 ft 224 kts 34°
2026-05-07 15:10 59.56428 18.07432 5956 ft 234 kts 30°
2026-05-07 15:10 59.57843 18.09256 6213 ft 254 kts 30°
2026-05-07 15:10 59.59375 18.11213 6630 ft 267 kts 30°
2026-05-07 15:11 59.60957 18.13228 7168 ft 274 kts 33°
2026-05-07 15:11 59.62231 18.16061 7706 ft 284 kts 63°
2026-05-07 15:11 59.62864 18.19788 8307 ft 288 kts 71°
2026-05-07 15:11 59.63480 18.23574 8861 ft 291 kts 69°
2026-05-07 15:12 59.64115 18.27396 9442 ft 295 kts 69°
2026-05-07 15:12 59.64538 18.31389 9985 ft 302 kts 90°
2026-05-07 15:12 59.64000 18.35481 10276 ft 317 kts 115°
2026-05-07 15:12 59.63030 18.39482 10618 ft 328 kts 111°
2026-05-07 15:13 59.62529 18.43839 11048 ft 333 kts 94°
2026-05-07 15:13 59.62364 18.48428 11566 ft 337 kts 92°
2026-05-07 15:13 59.62213 18.53085 12106 ft 341 kts 92°
2026-05-07 15:13 59.62106 18.57788 12678 ft 345 kts 91°
2026-05-07 15:14 59.62022 18.62567 13238 ft 350 kts 91°
2026-05-07 15:14 59.61957 18.67395 13807 ft 354 kts 90°
2026-05-07 15:14 59.61903 18.72282 14341 ft 358 kts 90°
2026-05-07 15:14 59.61855 18.77230 14861 ft 361 kts 90°
2026-05-07 15:15 59.61798 18.82223 15276 ft 366 kts 93°
2026-05-07 15:15 59.61182 18.86972 15223 ft 349 kts 117°
2026-05-07 15:15 59.60410 18.89754 15197 ft 336 kts 123°
2026-05-07 15:15 59.59294 18.93642 15016 ft 325 kts 119°
2026-05-07 15:16 59.58548 18.97808 14712 ft 320 kts 98°
2026-05-07 15:16 59.58360 19.02118 14708 ft 316 kts 94°
2026-05-07 15:16 59.58308 19.06562 14730 ft 333 kts 85°
2026-05-07 15:16 59.58646 19.11148 14775 ft 343 kts 75°
2026-05-07 15:17 59.59406 19.15629 14966 ft 348 kts 62°
2026-05-07 15:17 59.60596 19.19748 15539 ft 346 kts 51°
2026-05-07 15:17 59.61862 19.23831 16039 ft 354 kts 63°
2026-05-07 15:17 59.62797 19.28373 16542 ft 360 kts 66°
2026-05-07 15:18 59.63726 19.33012 17044 ft 366 kts 65°
2026-05-07 15:18 59.64672 19.37712 17539 ft 371 kts 65°
2026-05-07 15:18 59.65634 19.42480 18038 ft 376 kts 65°
2026-05-07 15:18 59.66609 19.47328 18508 ft 383 kts 68°
2026-05-07 15:19 59.67045 19.52540 18917 ft 390 kts 93°
2026-05-07 15:19 59.66716 19.57885 19380 ft 393 kts 97°
2026-05-07 15:19 59.66468 19.63243 19777 ft 399 kts 95°
2026-05-07 15:19 59.66239 19.68739 20246 ft 403 kts 95°
2026-05-07 15:20 59.66024 19.74291 20726 ft 407 kts 95°
2026-05-07 15:20 59.65814 19.79899 21198 ft 410 kts 95°
2026-05-07 15:20 59.65610 19.85542 21657 ft 414 kts 94°
2026-05-07 15:20 59.65409 19.91258 22118 ft 417 kts 94°
2026-05-07 15:21 59.65208 19.96995 22572 ft 421 kts 95°
2026-05-07 15:21 59.65004 20.02800 23013 ft 425 kts 95°
2026-05-07 15:21 59.64796 20.08661 23472 ft 429 kts 95°
2026-05-07 15:21 59.64585 20.14561 23894 ft 432 kts 95°
2026-05-07 15:22 59.64372 20.20500 24301 ft 434 kts 95°
2026-05-07 15:22 59.64154 20.26479 24701 ft 437 kts 95°
2026-05-07 15:22 59.63932 20.32489 25090 ft 439 kts 95°
2026-05-07 15:22 59.63706 20.38532 25469 ft 442 kts 95°
2026-05-07 15:23 59.63477 20.44602 25839 ft 444 kts 95°
2026-05-07 15:23 59.63246 20.50704 26199 ft 447 kts 95°
2026-05-07 15:23 59.63008 20.56841 26543 ft 449 kts 95°
2026-05-07 15:23 59.62768 20.63010 26888 ft 451 kts 95°
2026-05-07 15:24 59.62520 20.69211 27234 ft 454 kts 95°
2026-05-07 15:24 59.62270 20.75434 27574 ft 456 kts 95°
2026-05-07 15:24 59.62021 20.81690 27916 ft 458 kts 95°
2026-05-07 15:24 59.61761 20.87984 28238 ft 460 kts 95°
2026-05-07 15:25 59.61497 20.94303 28564 ft 463 kts 95°
2026-05-07 15:25 59.61230 21.00575 28873 ft 465 kts 95°
2026-05-07 15:25 59.60961 21.06940 29247 ft 465 kts 95°
2026-05-07 15:25 59.60692 21.13305 29663 ft 464 kts 95°
2026-05-07 15:26 59.60414 21.19686 30085 ft 464 kts 95°
2026-05-07 15:26 59.60136 21.26030 30457 ft 463 kts 95°
2026-05-07 15:26 59.59857 21.32361 30714 ft 466 kts 96°
2026-05-07 15:26 59.59569 21.38727 31071 ft 464 kts 96°
2026-05-07 15:27 59.59283 21.45081 31425 ft 464 kts 96°
2026-05-07 15:27 59.58993 21.51409 31771 ft 463 kts 96°
2026-05-07 15:27 59.58706 21.57651 32130 ft 462 kts 96°
2026-05-07 15:27 59.58409 21.63959 32467 ft 461 kts 97°
2026-05-07 15:28 59.58106 21.70266 32816 ft 460 kts 97°
2026-05-07 15:28 59.57802 21.76552 33173 ft 460 kts 97°